OK2JCZ-6 Weather Reports


Display with metric or nautical units.
time (UTC)temp
F
wind
direction
speed
MPH
gust
MPH
rain 1hr
in
rain 24hr
in
rain mn
in
humidity
%
barometer
mb
20260507024940 50 288 1.0 2.0 0.00 0.00 0.00 63 1008.0
20260507024440 51 288 2.0 2.0 0.00 0.00 0.00 64 1008.0
20260507021942 51 288 2.0 4.0 0.00 0.00 0.00 65 1008.1
20260507020440 51 278 3.0 4.0 0.00 0.00 0.00 65 1007.9
20260507015940 51 278 5.0 6.0 0.00 0.00 0.00 65 1007.8
20260507015440 51 278 3.0 8.0 0.00 0.00 0.00 65 1007.6
20260507013940 51 286 4.0 6.0 0.00 0.00 0.00 64 1007.4
20260507013440 51 290 5.0 6.0 0.00 0.00 0.00 64 1007.5
20260507012440 52 290 4.0 6.0 0.00 0.00 0.00 64 1007.4
20260507011940 52 290 4.0 6.0 0.00 0.00 0.00 64 1007.4
20260507011440 52 291 5.0 6.0 0.00 0.00 0.00 64 1007.4
20260507010940 52 292 6.0 7.0 0.00 0.00 0.00 64 1007.3
20260507010440 52 288 6.0 8.0 0.00 0.00 0.00 65 1007.2
20260507005940 52 289 5.0 8.0 0.00 0.00 0.00 65 1007.1
20260507005440 52 284 6.0 9.0 0.00 0.00 0.00 65 1007.1
20260507004440 52 296 5.0 7.0 0.00 0.00 0.00 65 1006.9
20260507003440 52 304 7.0 10.0 0.00 0.00 0.00 66 1006.5
20260507001940 52 296 6.0 10.0 0.00 0.00 0.00 64 1006.7
20260507001440 52 293 6.0 7.0 0.00 0.00 0.00 63 1006.8
20260507000940 52 288 6.0 8.0 0.00 0.00 0.00 64 1006.8
20260507000442 52 288 6.0 8.0 0.00 0.00 0.00 64 1006.8
20260506234445 52 298 5.0 6.0 0.00 0.00 0.00 64 1006.6
20260506230940 53 330 6.0 7.0 0.00 0.00 0.00 63 1005.8
20260506224440 55 318 6.0 9.0 0.00 0.00 0.00 63 1005.3
20260506223940 55 312 9.0 11.0 0.00 0.00 0.00 63 1005.3
20260506223440 56 300 9.0 13.0 0.00 0.00 0.00 63 1005.4
20260506222940 56 309 13.0 15.0 0.00 0.00 0.00 62 1005.2
20260506222440 57 317 9.0 11.0 0.00 0.00 0.00 60 1005.0
20260506220940 57 257 2.0 3.0 0.00 0.00 0.00 55 1004.8
20260506220440 57 257 4.0 9.0 0.00 0.00 0.00 57 1004.8
20260506215940 57 164 6.0 7.0 0.00 0.00 0.00 57 1004.8
20260506215440 57 163 4.0 6.0 0.00 0.00 0.00 56 1004.8
20260506214940 57 164 7.0 10.0 0.00 0.00 0.00 57 1004.7
20260506214440 57 164 10.0 11.0 0.00 0.00 0.00 57 1004.7
20260506212440 58 136 8.0 12.0 0.00 0.00 0.00 57 1004.4
20260506211940 58 147 8.0 9.0 0.00 0.00 0.00 56 1004.4
20260506211440 58 149 7.0 8.0 0.00 0.00 0.00 55 1004.3
20260506210941 58 133 7.0 11.0 0.00 0.00 0.00 55 1004.1
20260506205940 58 128 10.0 11.0 0.00 0.00 0.00 56 1004.0
20260506205440 59 123 9.0 11.0 0.00 0.00 0.00 56 1003.9
20260506204940 59 126 9.0 12.0 0.00 0.00 0.00 56 1003.9
20260506203940 59 122 10.0 13.0 0.00 0.00 0.00 55 1003.9
20260506203440 59 120 11.0 12.0 0.00 0.00 0.00 54 1003.9
20260506202940 59 121 11.0 13.0 0.00 0.00 0.00 54 1003.9
20260506202440 60 129 11.0 13.0 0.00 0.00 0.00 54 1003.9
20260506200940 60 133 11.0 13.0 0.00 0.00 0.00 53 1004.0
20260506200440 60 129 11.0 13.0 0.00 0.00 0.00 53 1004.0
20260506195440 60 137 11.0 13.0 0.00 0.00 0.00 52 1003.9
20260506194940 60 132 9.0 11.0 0.00 0.00 0.00 52 1004.0
20260506193940 61 127 10.0 12.0 0.00 0.00 0.00 50 1003.8
20260506192440 61 125 10.0 11.0 0.00 0.00 0.00 49 1003.6
20260506191940 61 121 9.0 14.0 0.00 0.00 0.00 48 1003.5
20260506190940 61 126 11.0 13.0 0.00 0.00 0.00 48 1003.6
20260506190440 62 142 10.0 11.0 0.00 0.00 0.00 48 1003.6
20260506185940 62 129 11.0 12.0 0.00 0.00 0.00 48 1003.5
20260506184940 62 130 11.0 14.0 0.00 0.00 0.00 48 1003.3
20260506183940 62 136 10.0 17.0 0.00 0.00 0.00 48 1003.3
20260506183440 62 131 14.0 15.0 0.00 0.00 0.00 47 1003.3
20260506182940 62 127 10.0 13.0 0.00 0.00 0.00 47 1003.4
20260506182440 63 124 8.0 12.0 0.00 0.00 0.00 46 1003.5
20260506181940 63 125 9.0 10.0 0.00 0.00 0.00 46 1003.4
20260506181440 63 123 10.0 11.0 0.00 0.00 0.00 45 1003.4
20260506180940 63 126 11.0 14.0 0.00 0.00 0.00 45 1003.3
20260506180440 63 126 11.0 13.0 0.00 0.00 0.00 45 1003.3
20260506175440 63 132 13.0 15.0 0.00 0.00 0.00 45 1003.1
20260506173440 64 130 15.0 18.0 0.00 0.00 0.00 44 1003.2
20260506172940 64 135 15.0 16.0 0.00 0.00 0.00 44 1003.2
20260506172440 64 131 16.0 17.0 0.00 0.00 0.00 43 1003.2
20260506171940 64 139 16.0 17.0 0.00 0.00 0.00 43 1003.2
20260506171440 65 136 15.0 17.0 0.00 0.00 0.00 43 1003.2
20260506170440 66 129 15.0 16.0 0.00 0.00 0.00 42 1003.2
20260506164940 66 137 17.0 25.0 0.00 0.00 0.00 40 1003.4
20260506164440 67 138 15.0 17.0 0.00 0.00 0.00 40 1003.4
20260506163440 67 149 13.0 15.0 0.00 0.00 0.00 39 1003.4
20260506162940 67 140 14.0 19.0 0.00 0.00 0.00 38 1003.4
20260506161940 68 151 12.0 15.0 0.00 0.00 0.00 39 1003.5
20260506161440 68 128 18.0 21.0 0.00 0.00 0.00 38 1003.6
20260506160940 68 129 15.0 17.0 0.00 0.00 0.00 39 1003.6
20260506160440 67 141 13.0 15.0 0.00 0.00 0.00 39 1003.6
20260506154940 67 130 16.0 19.0 0.00 0.00 0.00 39 1003.9
20260506154440 67 126 19.0 21.0 0.00 0.00 0.00 39 1004.0
20260506153940 67 140 17.0 18.0 0.00 0.00 0.00 40 1004.1
20260506152940 66 130 14.0 19.0 0.00 0.00 0.00 41 1004.4
20260506150940 68 147 12.0 16.0 0.00 0.00 0.00 39 1004.4
20260506150440 67 166 17.0 19.0 0.00 0.00 0.00 38 1004.4
20260506144944 69 143 14.0 18.0 0.00 0.00 0.00 39 1004.7
20260506142940 70 154 12.0 18.0 0.00 0.00 0.00 37 1004.8
20260506142440 69 144 12.0 17.0 0.00 0.00 0.00 39 1004.9
20260506141941 69 155 16.0 17.0 0.00 0.00 0.00 37 1004.9
20260506141440 69 158 13.0 19.0 0.00 0.00 0.00 39 1004.9
20260506140940 69 160 15.0 16.0 0.00 0.00 0.00 39 1005.0
20260506140440 67 150 12.0 17.0 0.00 0.00 0.00 41 1005.1
20260506133940 66 142 13.0 15.0 0.00 0.00 0.00 41 1005.5
20260506131940 68 146 11.0 12.0 0.00 0.00 0.00 40 1005.7
20260506131440 68 143 9.0 12.0 0.00 0.00 0.00 40 1005.8
20260506130940 68 147 8.0 12.0 0.00 0.00 0.00 40 1005.8
20260506125940 67 156 9.0 13.0 0.00 0.00 0.00 40 1006.0
20260506123940 69 157 11.0 13.0 0.00 0.00 0.00 37 1006.2
20260506123440 70 132 14.0 17.0 0.00 0.00 0.00 37 1006.2
20260506122940 70 173 11.0 13.0 0.00 0.00 0.00 37 1006.2
20260506122440 70 161 13.0 18.0 0.00 0.00 0.00 37 1006.2
20260506120940 70 176 11.0 18.0 0.00 0.00 0.00 36 1006.3
20260506120440 70 155 13.0 14.0 0.00 0.00 0.00 35 1006.3
20260506114940 68 170 9.0 13.0 0.00 0.00 0.00 38 1006.5
20260506114440 68 148 9.0 11.0 0.00 0.00 0.00 39 1006.5
20260506113440 68 159 7.0 10.0 0.00 0.00 0.00 38 1006.5
20260506112940 68 130 8.0 11.0 0.00 0.00 0.00 38 1006.5
20260506112440 68 136 9.0 12.0 0.00 0.00 0.00 39 1006.5
20260506110940 69 140 9.0 11.0 0.00 0.00 0.00 40 1006.7
20260506110440 69 163 8.0 10.0 0.00 0.00 0.00 38 1006.8
20260506105940 69 161 11.0 14.0 0.00 0.00 0.00 38 1006.7
20260506104440 70 151 10.0 13.0 0.00 0.00 0.00 36 1006.8
20260506103943 70 136 4.0 5.0 0.00 0.00 0.00 37 1006.9
20260506103440 71 181 10.0 13.0 0.00 0.00 0.00 39 1006.9
20260506102940 71 157 9.0 11.0 0.00 0.00 0.00 39 1007.0
20260506102440 71 165 9.0 11.0 0.00 0.00 0.00 37 1007.1
20260506101940 71 158 7.0 10.0 0.00 0.00 0.00 38 1007.1
20260506100440 72 181 8.0 14.0 0.00 0.00 0.00 38 1007.2
20260506095940 72 151 9.0 11.0 0.00 0.00 0.00 38 1007.3
20260506095440 70 179 7.0 10.0 0.00 0.00 0.00 37 1007.3
20260506094940 70 198 7.0 9.0 0.00 0.00 0.00 39 1007.3
20260506093440 69 174 7.0 11.0 0.00 0.00 0.00 38 1007.3
20260506091940 70 191 6.0 7.0 0.00 0.00 0.00 38 1007.3
20260506090941 70 161 9.0 11.0 0.00 0.00 0.00 40 1007.3
20260506090440 70 224 6.0 8.0 0.00 0.00 0.00 38 1007.3
20260506085940 70 251 7.0 9.0 0.00 0.00 0.00 39 1007.3
20260506084440 68 167 11.0 13.0 0.00 0.00 0.00 38 1007.3
20260506083940 68 146 4.0 5.0 0.00 0.00 0.00 40 1007.3
20260506083440 70 147 9.0 9.0 0.00 0.00 0.00 41 1007.4
20260506082940 70 164 8.0 11.0 0.00 0.00 0.00 41 1007.4
20260506082440 70 175 5.0 9.0 0.00 0.00 0.00 38 1007.5
20260506081940 70 197 7.0 9.0 0.00 0.00 0.00 38 1007.5
20260506081440 70 225 7.0 10.0 0.00 0.00 0.00 39 1007.5
20260506080940 70 176 4.0 7.0 0.00 0.00 0.00 40 1007.5
20260506080440 72 175 9.0 10.0 0.00 0.00 0.00 39 1007.5
20260506073440 71 252 3.0 7.0 0.00 0.00 0.00 40 1007.4
20260506072940 71 256 4.0 5.0 0.00 0.00 0.00 41 1007.5
20260506071940 70 288 5.0 6.0 0.00 0.00 0.00 42 1007.6
20260506071440 68 288 7.0 9.0 0.00 0.00 0.00 42 1007.6
20260506070940 68 276 5.0 6.0 0.00 0.00 0.00 42 1007.5
20260506070440 69 282 6.0 9.0 0.00 0.00 0.00 42 1007.5
20260506062445 67 255 4.0 5.0 0.00 0.00 0.00 46 1007.4
20260506061940 67 277 3.0 5.0 0.00 0.00 0.00 48 1007.5
20260506061440 65 256 5.0 7.0 0.00 0.00 0.00 47 1007.5
20260506060940 65 254 4.0 5.0 0.00 0.00 0.00 48 1007.4
20260506050940 59 210 4.0 6.0 0.00 0.00 0.00 61 1007.2
20260506050440 58 210 5.0 6.0 0.00 0.00 0.00 62 1007.2
20260506044940 59 240 4.0 5.0 0.00 0.00 0.00 61 1006.9
20260506044440 58 241 4.0 5.0 0.00 0.00 0.00 62 1006.8
20260506043940 58 241 6.0 7.0 0.00 0.00 0.00 62 1006.8
20260506043440 56 273 4.0 6.0 0.00 0.00 0.00 65 1006.8
20260506042940 56 278 5.0 6.0 0.00 0.00 0.00 67 1006.8
20260506042440 53 290 5.0 6.0 0.00 0.00 0.00 69 1006.7
20260506041440 51 298 2.0 4.0 0.00 0.00 0.00 69 1006.7
20260506040440 51 298 2.0 3.0 0.00 0.00 0.00 71 1006.6
20260506035940 51 298 3.0 3.0 0.00 0.00 0.00 71 1006.5
20260506033940 51 298 2.0 2.0 0.00 0.00 0.00 66 1006.4
20260506030440 52 298 4.0 5.0 0.00 0.00 0.00 66 1006.4
20260506025440 52 299 5.0 6.0 0.00 0.00 0.00 66 1006.4